Regional Weather Roundup
Issued by NWS

Home | Current Version | Previous Version | Text Only | Print | Product List | Glossary On
Versions: 1 2 3 4 5 6 7 8 9 10 11 12 13 14 15 16 17 18 19 20 21 22 23 24 25 26 27 28 29 30 31 32 33 34 35 36 37 38 39 40 41 42 43 44 45 46 47 48 49 50
009
ASUS43 KFSD 280510
RWRSD

WEATHER ROUNDUP FOR SOUTH DAKOTA
NATIONAL WEATHER SERVICE SIOUX FALLS SD
1200 AM CDT SUN AUG 28 2016

NOTE: "FAIR" INDICATES FEW OR NO CLOUDS BELOW 12,000 FEET WITH NO
SIGNIFICANT WEATHER AND/OR OBSTRUCTIONS TO VISIBILITY.


SDZ001>005-009-010-012>017-280600-
NORTHWEST AND NORTH CENTRAL SOUTH DAKOTA

CITY           SKY/WX    TMP DP  RH WIND       PRES   REMARKS
BUFFALO          N/A     66  53  63 SE10      29.85S
FAITH            N/A     68  57  68 SE15      29.90F
MOBRIDGE       CLOUDY    67  52  58 SE9       29.90S
$$

SDZ012>016-024>037-041>051-057-063-072>074-280600-
SOUTHWEST AND SOUTH CENTRAL SOUTH DAKOTA

CITY           SKY/WX    TMP DP  RH WIND       PRES   REMARKS
RAPID CTY ARPT CLOUDY    64  51  62 S5        29.93S
PIERRE         PTCLDY    70  60  70 SE13      29.89S
CUSTER         CLOUDY    55  43  63 CALM      30.08S
ELLSWORTH AFB  PTCLDY    67  53  59 S12       29.92S
PHILIP         CLOUDY    68  58  70 E6        29.90F
PINE RIDGE     CLEAR     71  56  58 S17G24    29.97R
WINNER         FAIR      76  63  64 S17G25    29.96R
$$

SDZ004>011-016>023-039-040-280600-
NORTHEAST SOUTH DAKOTA

CITY           SKY/WX    TMP DP  RH WIND       PRES   REMARKS
ABERDEEN       PTCLDY    64  61  90 SE9       29.96S
WATERTOWN      CLEAR     65  62  90 SE7       30.02S
BROOKINGS      CLEAR     64  61  90 SE9       30.04R
SISSETON         N/A     62  60  93 S6        29.99F
$$

SDZ017-020-022-023-036>040-048>070-280600-
SOUTHEAST SOUTH DAKOTA

CITY           SKY/WX    TMP DP  RH WIND       PRES   REMARKS
SIOUX FALLS    PTCLDY    69  65  86 SE8       30.04S
HURON          CLEAR     70  64  81 SE14G21   29.96F
CHAMBERLAIN    CLEAR     70  66  87 SE7       29.95S
MITCHELL       CLEAR     70  65  84 SE13      29.99R
YANKTON        CLEAR     66  63  88 SE7       30.02R
$$

ABBREVIATIONS USED IN REMARKS
   TC - TEMPERATURE IN CELSIUS
  WCI - WIND CHILL INDEX
   HX - HEAT INDEX
  VSB - VISIBILITY





USA.gov is the U.S. government's official web portal to all federal, state and local government web resources and services.